This is the latest recevied weather packets stored in our database for station/object K5NOC-12. If no packets are shown the sender has not sent any weather packets the latest 10 day(s).
| Time | Temp. | Humidity | Pressure | Rain* | Wind** | Luminosity | Snow |
|---|---|---|---|---|---|---|---|
| 1777488956 | 18.89° C | 31% | 1018.6 hPa | 0 mm | - | - | - |
| 1777488056 | 17.78° C | 34% | 1018.6 hPa | 0 mm | - | - | - |
| 1777487156 | 17.78° C | 34% | 1019.1 hPa | 0 mm | - | - | - |
| 1777486256 | 17.78° C | 36% | 1019.4 hPa | 0 mm | - | - | - |
| 1777485356 | 17.22° C | 40% | 1019.6 hPa | 0 mm | - | - | - |
| 1777484455 | 16.67° C | 44% | 1020 hPa | 0 mm | - | - | - |
| 1777483555 | 16.11° C | 46% | 1020.2 hPa | 0 mm | - | - | - |
| 1777482655 | 15° C | 49% | 1020.3 hPa | 0 mm | - | - | - |
| 1777481755 | 14.44° C | 53% | 1020.7 hPa | 0 mm | - | - | - |
| 1777480855 | 13.89° C | 55% | 1020.9 hPa | 0 mm | - | - | - |
| 1777479955 | 13.33° C | 57% | 1020.7 hPa | 0 mm | - | - | - |
| 1777479054 | 12.22° C | 60% | 1021 hPa | 0 mm | - | - | - |
| 1777478154 | 11.67° C | 64% | 1021 hPa | 0 mm | - | - | - |
| 1777477254 | 10.56° C | 66% | 1021.2 hPa | 0 mm | - | - | - |
| 1777476354 | 10° C | 68% | 1021.2 hPa | 0 mm | - | - | - |
| 1777475454 | 9.44° C | 70% | 1021.2 hPa | 0 mm | - | - | - |
| 1777474554 | 9.44° C | 72% | 1021.2 hPa | 0 mm | - | - | - |
| 1777473654 | 8.89° C | 74% | 1021.5 hPa | 0 mm | - | - | - |
| 1777472753 | 8.33° C | 74% | 1021.6 hPa | 0 mm | - | - | - |
| 1777471853 | 8.33° C | 74% | 1021.5 hPa | 0 mm | - | - | - |
| 1777470953 | 7.78° C | 76% | 1021.5 hPa | 0 mm | - | - | - |
| 1777470053 | 7.78° C | 77% | 1021.4 hPa | 0 mm | - | - | - |
| 1777469153 | 7.22° C | 78% | 1021.2 hPa | 0 mm | - | - | - |
| 1777468253 | 7.22° C | 78% | 1021.1 hPa | 0 mm | - | - | - |
| 1777467353 | 7.22° C | 79% | 1021.1 hPa | 0 mm | - | - | - |
* Rain latest hour (hover to see other rain measurements)
** Current wind speed in m/s (hover to see current wind gust speed)